Previsão horária em Juszkowo

Hoje, 19 Junho, Sábado

Tempo Temperatura Precipitação Vento Pressão Humidade
00:00 +20°C° 0 mm 3 m/s 760 mmHg 86%
01:00 +19°C° 0 mm 3 m/s 760 mmHg 88%
02:00 +19°C° 0 mm 3 m/s 760 mmHg 89%
03:00 +19°C° 0 mm 3 m/s 759 mmHg 89%
04:00 +18°C° 0 mm 3 m/s 759 mmHg 90%
05:00 +20°C° 0 mm 3 m/s 759 mmHg 84%
06:00 +22°C° 0 mm 4 m/s 759 mmHg 78%
07:00 +25°C° 0 mm 4 m/s 759 mmHg 71%
08:00 +26°C° 0 mm 4 m/s 759 mmHg 66%
09:00 +28°C° 0 mm 5 m/s 759 mmHg 61%
10:00 +29°C° 0 mm 5 m/s 759 mmHg 56%
11:00 +30°C° 0 mm 5 m/s 759 mmHg 53%
12:00 +30°C° 0 mm 5 m/s 759 mmHg 51%
13:00 +32°C° 0 mm 5 m/s 758 mmHg 49%
14:00 +32°C° 0 mm 5 m/s 758 mmHg 51%
15:00 +32°C° 0 mm 5 m/s 758 mmHg 52%
16:00 +30°C° 0 mm 5 m/s 758 mmHg 54%
17:00 +29°C° 0 mm 5 m/s 758 mmHg 59%
18:00 +28°C° 0 mm 4 m/s 758 mmHg 64%
19:00 +27°C° 0 mm 4 m/s 757 mmHg 68%
20:00 +25°C° 0 mm 4 m/s 758 mmHg 70%
21:00 +24°C° 0 mm 3 m/s 758 mmHg 71%
22:00 +22°C° 0 mm 3 m/s 758 mmHg 72%
23:00 +21°C° 0 mm 3 m/s 758 mmHg 77%

Amanhã, 20 Junho, Domingo

Tempo Temperatura Precipitação Vento Pressão Humidade
00:00 +21°C° 0 mm 3 m/s 758 mmHg 82%
01:00 +20°C° 0 mm 3 m/s 758 mmHg 86%
02:00 +20°C° 0 mm 2 m/s 758 mmHg 87%
03:00 +20°C° 0 mm 2 m/s 758 mmHg 89%
04:00 +20°C° 0 mm 2 m/s 758 mmHg 90%
05:00 +21°C° 0 mm 2 m/s 758 mmHg 85%
06:00 +24°C° 0 mm 2 m/s 758 mmHg 81%
07:00 +25°C° 0 mm 3 m/s 758 mmHg 77%
08:00 +26°C° 0 mm 3 m/s 757 mmHg 73%
09:00 +27°C° 0 mm 4 m/s 757 mmHg 69%
10:00 +28°C° 0 mm 4 m/s 757 mmHg 65%
11:00 +29°C° 0 mm 4 m/s 757 mmHg 60%
12:00 +30°C° 0 mm 4 m/s 757 mmHg 55%
13:00 +32°C° 0 mm 4 m/s 756 mmHg 50%
14:00 +30°C° 0 mm 4 m/s 756 mmHg 51%
15:00 +30°C° 0 mm 4 m/s 756 mmHg 52%
16:00 +30°C° 0 mm 4 m/s 756 mmHg 53%
17:00 +29°C° 0 mm 4 m/s 755 mmHg 59%
18:00 +28°C° 0 mm 4 m/s 755 mmHg 65%
19:00 +27°C° 0 mm 3 m/s 755 mmHg 71%
20:00 +25°C° 0 mm 3 m/s 755 mmHg 74%
21:00 +24°C° 0 mm 3 m/s 755 mmHg 77%
22:00 +22°C° 0 mm 3 m/s 755 mmHg 80%
23:00 +21°C° 0 mm 3 m/s 755 mmHg 84%

Depois de amanhã, 21 Junho, Segunda-feira

Tempo Temperatura Precipitação Vento Pressão Humidade
00:00 +21°C° 0 mm 3 m/s 755 mmHg 87%
01:00 +20°C° 0 mm 3 m/s 754 mmHg 91%
02:00 +20°C° 0 mm 3 m/s 754 mmHg 92%
03:00 +20°C° 0 mm 3 m/s 754 mmHg 94%
04:00 +19°C° 0 mm 3 m/s 754 mmHg 95%
05:00 +21°C° 0 mm 3 m/s 754 mmHg 89%
06:00 +23°C° 0 mm 4 m/s 754 mmHg 83%
07:00 +25°C° 0 mm 5 m/s 754 mmHg 76%
08:00 +27°C° 0 mm 5 m/s 754 mmHg 70%
09:00 +28°C° 0 mm 5 m/s 754 mmHg 64%
10:00 +29°C° 0 mm 6 m/s 753 mmHg 58%
11:00 +30°C° 0 mm 6 m/s 753 mmHg 56%
12:00 +30°C° 0 mm 6 m/s 753 mmHg 54%
13:00 +30°C° 0 mm 6 m/s 753 mmHg 52%
14:00 +30°C° 0 mm 5 m/s 753 mmHg 55%
15:00 +29°C° 0 mm 5 m/s 752 mmHg 58%
16:00 +29°C° 0 mm 5 m/s 752 mmHg 62%
17:00 +28°C° 0 mm 4 m/s 752 mmHg 66%
18:00 +27°C° 0 mm 4 m/s 752 mmHg 70%
19:00 +26°C° 0 mm 4 m/s 752 mmHg 74%
20:00 +25°C° 0.1 mm 3 m/s 752 mmHg 78%
21:00 +24°C° 0.1 mm 3 m/s 752 mmHg 82%
22:00 +23°C° 0.1 mm 2 m/s 753 mmHg 86%
23:00 +21°C° 0.1 mm 2 m/s 753 mmHg 88%

22 Junho, Terça-feira

Tempo Temperatura Precipitação Vento Pressão Humidade
00:00 +21°C° 0.1 mm 2 m/s 753 mmHg 91%
01:00 +21°C° 0.1 mm 1 m/s 753 mmHg 93%
02:00 +20°C° 0.3 mm 2 m/s 753 mmHg 94%
03:00 +19°C° 0.3 mm 2 m/s 753 mmHg 95%
04:00 +19°C° 0.3 mm 2 m/s 754 mmHg 96%
05:00 +19°C° 0.7 mm 3 m/s 754 mmHg 95%
06:00 +19°C° 0.7 mm 3 m/s 754 mmHg 95%
07:00 +20°C° 0.7 mm 3 m/s 755 mmHg 94%
08:00 +21°C° 0 mm 3 m/s 755 mmHg 88%
09:00 +22°C° 0 mm 3 m/s 755 mmHg 82%
10:00 +24°C° 0 mm 3 m/s 756 mmHg 76%
11:00 +25°C° 0 mm 3 m/s 756 mmHg 72%
12:00 +26°C° 0 mm 3 m/s 756 mmHg 67%
13:00 +26°C° 0 mm 3 m/s 756 mmHg 63%
14:00 +26°C° 0 mm 3 m/s 757 mmHg 65%
15:00 +25°C° 0 mm 4 m/s 757 mmHg 67%
16:00 +23°C° 0 mm 5 m/s 757 mmHg 69%
17:00 +22°C° 0 mm 4 m/s 757 mmHg 73%
18:00 +21°C° 0 mm 4 m/s 758 mmHg 76%
19:00 +19°C° 0 mm 3 m/s 758 mmHg 79%
20:00 +18°C° 0 mm 3 m/s 758 mmHg 83%
21:00 +17°C° 0 mm 2 m/s 758 mmHg 87%
22:00 +15°C° 0 mm 2 m/s 759 mmHg 91%
23:00 +15°C° 0 mm 2 m/s 759 mmHg 90%

23 Junho, Quarta-feira

Tempo Temperatura Precipitação Vento Pressão Humidade
00:00 +14°C° 0 mm 2 m/s 759 mmHg 90%
01:00 +14°C° 0 mm 2 m/s 759 mmHg 89%
02:00 +14°C° 0 mm 1 m/s 758 mmHg 88%
03:00 +14°C° 0 mm 1 m/s 758 mmHg 86%
04:00 +14°C° 0 mm 1 m/s 758 mmHg 85%
05:00 +16°C° 0 mm 2 m/s 758 mmHg 78%
06:00 +18°C° 0 mm 2 m/s 759 mmHg 71%
07:00 +19°C° 0 mm 2 m/s 759 mmHg 65%
08:00 +21°C° 0 mm 2 m/s 759 mmHg 62%
09:00 +23°C° 0 mm 2 m/s 759 mmHg 58%
10:00 +24°C° 0 mm 2 m/s 759 mmHg 55%
11:00 +25°C° 0 mm 3 m/s 758 mmHg 55%
12:00 +26°C° 0 mm 3 m/s 758 mmHg 56%
13:00 +26°C° 0 mm 3 m/s 758 mmHg 57%
14:00 +26°C° 0 mm 3 m/s 758 mmHg 59%
15:00 +26°C° 0 mm 3 m/s 758 mmHg 61%
16:00 +26°C° 0 mm 3 m/s 758 mmHg 64%
17:00 +25°C° 0 mm 3 m/s 758 mmHg 68%
18:00 +22°C° 0 mm 3 m/s 757 mmHg 73%
19:00 +21°C° 0 mm 3 m/s 757 mmHg 78%
20:00 +20°C° 0 mm 3 m/s 757 mmHg 83%
21:00 +19°C° 0 mm 3 m/s 757 mmHg 88%
22:00 +19°C° 0 mm 3 m/s 757 mmHg 92%
23:00 +19°C° 0 mm 2 m/s 757 mmHg 93%

24 Junho, Quinta-feira

Tempo Temperatura Precipitação Vento Pressão Humidade
00:00 +19°C° 0 mm 2 m/s 757 mmHg 94%
01:00 +20°C° 0 mm 2 m/s 757 mmHg 95%
02:00 +20°C° 0 mm 2 m/s 756 mmHg 95%
03:00 +20°C° 0 mm 3 m/s 756 mmHg 94%
04:00 +20°C° 0 mm 3 m/s 755 mmHg 94%
05:00 +21°C° 0.1 mm 4 m/s 755 mmHg 89%
06:00 +22°C° 0.1 mm 5 m/s 755 mmHg 84%
07:00 +23°C° 0.1 mm 6 m/s 756 mmHg 79%
08:00 +23°C° 0 mm 6 m/s 756 mmHg 76%
09:00 +23°C° 0 mm 7 m/s 756 mmHg 72%
10:00 +23°C° 0 mm 8 m/s 757 mmHg 69%
11:00 +24°C° 0 mm 7 m/s 757 mmHg 63%
12:00 +24°C° 0 mm 6 m/s 758 mmHg 57%
13:00 +26°C° 0 mm 6 m/s 758 mmHg 52%
14:00 +27°C° 0 mm 5 m/s 758 mmHg 50%
15:00 +27°C° 0 mm 5 m/s 758 mmHg 49%
16:00 +27°C° 0 mm 5 m/s 759 mmHg 48%
17:00 +26°C° 0 mm 4 m/s 759 mmHg 54%
18:00 +24°C° 0 mm 3 m/s 759 mmHg 60%
19:00 +23°C° 0 mm 2 m/s 759 mmHg 66%
20:00 +20°C° 0 mm 2 m/s 759 mmHg 73%
21:00 +18°C° 0 mm 2 m/s 760 mmHg 80%
22:00 +16°C° 0 mm 1 m/s 760 mmHg 87%
23:00 +16°C° 0 mm 1 m/s 760 mmHg 89%
Mostrar mais

Necessitamos do seu Consentimento

A Meteoprog e os seus Fornecedores de Serviços podem armazenar e aceder a dados pessoais como cookies, identificadores do dispositivo ou outras tecnologias semelhantes existentes no seu dispositivo e processar estes dados para personalizar conteúdos e anúncios, assim como funcionalidades nas redes sociais e análise de tráfego.

  • Armazenar e/ou aceder a informações no seu dispositivo

    Os cookies, identificadores do dispositivo ou outras informações podem ser armazenados ou acedidos no seu dispositivo, para os fins acima indicados.

  • Anúncios e conteúdos personalizados, medição de anúncios e conteúdos, dados sobre o público-alvo e desenvolvimento de produtos

    Os anúncios e os conteúdos podem ser personalizados com base num perfil. Podem ser adicionados dados adicionais para uma maior personalização dos anúncios e dos conteúdos. A eficácia dos anúncios e dos conteúdos pode ser medida. Podem ser obtidas informações sobre o público que visualizou os anúncios e os conteúdos. Estes dados podem ser usados para desenvolver ou melhorar sistemas, softwares ou a experiência do utilizador.

Ao clicar em "Eu concordo”, permitirá o uso de cookies, identificadores do dispositivo e web beacons mencionados ou outras tecnologias semelhantes. As configurações do navegador do seu dispositivo podem ser alteradas.

Para certos fins, podem ser invocados interesses legítimos ao invés de consentimento. Pode ler mais informação sobre este assunto na nossa Política de Privacidade e Cookies.